Regional Weather Roundup
Issued by NWS

Home | Current Version | Previous Version | Graphics & Text | Print | Product List | Glossary On
Versions: 1 2 3 4 5 6 7 8 9 10 11 12 13 14 15 16 17 18 19 20 21 22 23 24 25 26 27 28 29 30 31 32 33 34 35 36 37 38 39 40 41 42 43 44 45 46 47 48 49 50
193
ASUS44 KMEG 231210
RWRTN
TENNESSEE HOURLY STATE WEATHER ROUNDUP
NATIONAL WEATHER SERVICE MEMPHIS TN
700 AM CDT WED AUG 23 2017

TNZ002-004-019-021-049-052-054-088>092-231300-
WEST TENNESSEE

CITY           SKY/WX    TMP DP  RH WIND       PRES   REMARKS
MEMPHIS INTL   PTCLDY    76  72  87 NE6       30.02R
NWS MEMPHIS      N/A     74 N/A N/A MISG        N/A
JACKSON        CLOUDY    72  71  97 N3        30.05R
DYERSBURG      CLOUDY    70  65  84 NE7       30.06R
SOMERVILLE     MOCLDY    72  70  94 CALM      30.03R
COVINGTON      CLOUDY    72  70  94 NE5       30.04R
BOLIVAR        CLEAR     70  70 100 CALM      30.03R
PARIS          MOCLDY    66  66 100 CALM      30.04R
HUNTINGDON     MOCLDY    68  66  94 CALM      30.04R
LEXINGTON      MOCLDY    70  68  94 CALM      30.03S
SELMER         CLEAR     70  70 100 N6        30.03R
SAVANNAH       CLOUDY    72  72 100 CALM      30.02S
$$

TNZ008-025-027-028-033-062-065-066-231300-
NORTH MIDDLE TENNESSEE

CITY           SKY/WX    TMP DP  RH WIND       PRES   REMARKS
NASHVILLE      MOCLDY    71  68  90 NW6       30.03R
PORTLAND       CLOUDY    68  68 100 N5        30.03R FOG
CLARKSVILLE    MOCLDY    67  64  90 N3        30.04R
SMYRNA         MOCLDY    71  69  93 NW6       30.03S
COOKEVILLE     MOCLDY    70  70 100 CALM      30.01S
GALLATIN       CLEAR     70  68  94 CALM      30.05R FOG
CROSSVILLE     CLOUDY    69  66  90 N5        30.05R
$$

TNZ061-075-076-078-094-096-097-231300-
SOUTH MIDDLE TENNESSEE

CITY           SKY/WX    TMP DP  RH WIND       PRES   REMARKS
FAYETTEVILLE   PTCLDY    72  70  94 N7        30.02R FOG
TULLAHOMA        N/A     70  66  88 N8        30.04R
WINCHESTER     CLOUDY    70  70 100 N6        30.03R
MCMINNVILLE    CLEAR     72  72 100 CALM      30.03R
COLUMBIA       CLOUDY    72  72 100 CALM      30.01S
SHELBYVILLE    CLOUDY    70  70 100 N6        30.02S FOG
$$

TNZ017-018-042-046-047-231300-
NORTHEAST TENNESSEE

CITY           SKY/WX    TMP DP  RH WIND       PRES   REMARKS
TRI CITIES     CLOUDY    73  69  87 W5        29.99R
ELIZABETHTON   CLOUDY    73  68  83 CALM      29.99R
$$

TNZ012-013-036-069-073-074-231300-
CENTRAL EAST TENNESSEE

CITY           SKY/WX    TMP DP  RH WIND       PRES   REMARKS
KNOXVILLE      CLOUDY    74  68  81 N7        29.98R
OAK RIDGE      CLOUDY    74  69  85 CALM      30.00R
DOWNTOWN KNOXV CLOUDY    73  72  94 CALM      29.97S
GATLINBURG     CLOUDY    73  68  83 W5        29.97R
MORRISTOWN     CLOUDY    73  72  94 NW3       29.98R
JACKSBORO      CLOUDY    72  70  94 CALM      30.03R
$$

TNZ083-085-099-231300-
SOUTHEAST TENNESSEE

CITY           SKY/WX    TMP DP  RH WIND       PRES   REMARKS
CHATTANOOGA    MOCLDY    76  69  79 NW5       29.99R
DAYTON         PTSUNNY   73  72  94 CALM      29.98R
$$

SKY/WX REPORTED AS FAIR MEANS FEW OR NO CLOUDS BELOW
12 THOUSAND FEET.





USA.gov is the U.S. government's official web portal to all federal, state and local government web resources and services.